map of KBAX home
Great Circle Mapper logo
KBAX - Airport
Location
City:  Bad Axe, Michigan, United States
Name:Huron County Memorial Airport
ICAO:KBAX
FAA:BAX

Details
Type:Airport (Airfield)
Use:Public/Civil
Latitude:4346'49"N (43.780222)
Longitude:8259'07"W (-82.985416)
Datum:WGS 1984
Elevation:763 ft (233 m)
Variation:7.87W (WMM2015 magnetic declination)
-0.02 annual change
Runways:2
Longest:5009 × 75 ft (1527 × 23 m), paved

Time
Time Zone:UTC-5 (DST-4)
Local Time:

Weather
METAR:KBAX 031434Z AUTO 17013KT 1SM -SN OVC018 M06/M07 A3004 RMK AO2 T10591075

Related Locations
Nearby:
Farthest:MGV: 11254 mi / 18111 km
Margaret River, WA, AU

Find:

   beyond  
but within

Other Information
Maps:
NOTAMs:
Links:
Sources:

  
flag of United States
flag of Michigan
  

Sectional Chart

Flight Planning
at skyvector.com

Satellite Image

Google Maps Satellite View

 

Copyright © 2004-2015 Karl L. Swartz. All rights reserved.
The Great Circle Mapper name and logo are trademarks of the Great Circle Mapper.
All other trademarks mentioned herein belong to their respective owners.
Please see credits for attibutions and further copyright information.

  Follow gcmap on Facebook Follow gcmap on Twitter Follow gcmap on Google+

hCard Microformat

Geo Microformat